Terminal Aerodrome Forecast
Issued by NWS Chicago, IL

Home | Current Version | Previous Version | Graphics & Text | Print | Product List | Glossary On
Versions: 1 2 3 4 5 6 7 8 9 10 11 12 13 14 15 16 17 18 19 20 21 22 23 24 25 26 27 28 29 30 31
000
FTUS43 KLOT 210200 AAA
TAFRFD
TAF AMD
KRFD 210254Z 2103/2124 17007KT P6SM SCT150 BKN300
     FM211600 23010KT P6SM VCSH BKN050
     FM212200 30009KT P6SM SCT050 BKN250=

USA.gov is the U.S. government's official web portal to all federal, state and local government web resources and services.